�������l�o���
Date,Time,MP-1(��Sv/h),MP-2(��Sv/h),MP-3(��Sv/h),MP-4(��Sv/h),MP-5(��Sv/h),MP-6(��Sv/h),MP-7(��Sv/h),MP-8(��Sv/h),����,����(m/s),���J
2021/04/12,00:00,0.636,0.944,0.591,1.162,0.830,0.372,0.655,0.614,��쐼,4.8,��
2021/04/12,00:10,0.636,0.944,0.591,1.163,0.832,0.373,0.655,0.613,��쐼,4.6,��
2021/04/12,00:20,0.635,0.944,0.591,1.162,0.830,0.372,0.656,0.615,��쐼,4.4,��
2021/04/12,00:30,0.633,0.943,0.591,1.162,0.830,0.372,0.656,0.616,��쐼,4.3,��
2021/04/12,00:40,0.634,0.943,0.591,1.162,0.831,0.371,0.654,0.614,��쐼,4.3,��
2021/04/12,00:50,0.633,0.945,0.590,1.160,0.829,0.373,0.656,0.616,��쐼,3.9,��
2021/04/12,01:00,0.635,0.944,0.590,1.163,0.830,0.372,0.655,0.616,��쐼,3.6,��
2021/04/12,01:10,0.635,0.940,0.592,1.163,0.831,0.372,0.655,0.614,��쐼,3.7,��
2021/04/12,01:20,0.634,0.944,0.591,1.161,0.830,0.373,0.654,0.614,�쐼,4.0,��
2021/04/12,01:30,0.634,0.943,0.593,1.160,0.830,0.372,0.653,0.615,��쐼,4.1,��
2021/04/12,01:40,0.635,0.944,0.590,1.164,0.832,0.374,0.655,0.615,��쐼,4.4,��
2021/04/12,01:50,0.633,0.943,0.592,1.161,0.832,0.373,0.655,0.615,��쐼,4.3,��
2021/04/12,02:00,0.632,0.944,0.591,1.159,0.830,0.373,0.654,0.615,��쐼,4.2,��
2021/04/12,02:10,0.635,0.945,0.590,1.161,0.831,0.371,0.657,0.615,��쐼,4.3,��
2021/04/12,02:20,0.634,0.946,0.592,1.161,0.830,0.372,0.654,0.617,��쐼,3.9,��
2021/04/12,02:30,0.635,0.943,0.591,1.163,0.830,0.373,0.653,0.615,��쐼,4.5,��
2021/04/12,02:40,0.632,0.944,0.591,1.160,0.831,0.372,0.653,0.614,��쐼,4.1,��
2021/04/12,02:50,0.634,0.941,0.590,1.161,0.831,0.373,0.653,0.615,�쐼,2.8,��
2021/04/12,03:00,0.635,0.944,0.590,1.160,0.829,0.372,0.656,0.615,���쐼,2.6,��
2021/04/12,03:10,0.634,0.943,0.590,1.163,0.830,0.373,0.655,0.614,���쐼,2.8,��
2021/04/12,03:20,0.634,0.942,0.593,1.162,0.829,0.371,0.654,0.616,���쐼,3.5,��
2021/04/12,03:30,0.633,0.943,0.592,1.160,0.830,0.372,0.655,0.615,���쐼,4.5,��
2021/04/12,03:40,0.634,0.943,0.591,1.165,0.830,0.371,0.655,0.614,���쐼,5.1,��
2021/04/12,03:50,0.633,0.941,0.590,1.164,0.830,0.371,0.654,0.615,�쐼,5.1,��
2021/04/12,04:00,0.633,0.942,0.590,1.162,0.832,0.372,0.654,0.614,�쐼,5.0,��
2021/04/12,04:10,0.633,0.942,0.592,1.163,0.831,0.371,0.654,0.614,�쐼,4.8,��
2021/04/12,04:20,0.635,0.942,0.590,1.160,0.830,0.373,0.655,0.615,�쐼,3.7,��
2021/04/12,04:30,0.632,0.941,0.590,1.162,0.830,0.372,0.654,0.615,��쐼,3.7,��
2021/04/12,04:40,0.633,0.937,0.591,1.163,0.831,0.372,0.654,0.614,��쐼,3.6,��
2021/04/12,04:50,0.633,0.940,0.593,1.162,0.830,0.371,0.655,0.614,�쐼,3.0,��
2021/04/12,05:00,0.634,0.942,0.592,1.163,0.829,0.372,0.654,0.615,�쐼,2.8,��
2021/04/12,05:10,0.634,0.942,0.590,1.161,0.829,0.372,0.655,0.615,�쐼,2.6,��
2021/04/12,05:20,0.633,0.941,0.590,1.163,0.829,0.373,0.654,0.615,��쐼,2.0,��
2021/04/12,05:30,0.633,0.943,0.590,1.161,0.829,0.372,0.654,0.614,��,2.0,��
2021/04/12,05:40,0.633,0.943,0.592,1.160,0.830,0.373,0.654,0.614,��쐼,1.5,��
2021/04/12,05:50,0.635,0.942,0.590,1.162,0.829,0.372,0.656,0.615,��쐼,1.2,��
2021/04/12,06:00,0.631,0.941,0.589,1.160,0.827,0.371,0.654,0.617,-,CALM,��
2021/04/12,06:10,0.634,0.943,0.591,1.162,0.831,0.372,0.655,0.616,��쓌,0.8,��
2021/04/12,06:20,0.632,0.943,0.590,1.162,0.831,0.372,0.655,0.615,��,0.6,��
2021/04/12,06:30,0.634,0.943,0.592,1.161,0.829,0.375,0.656,0.616,��,0.8,��
2021/04/12,06:40,0.635,0.943,0.592,1.163,0.830,0.371,0.652,0.614,��,0.9,��
2021/04/12,06:50,0.633,0.945,0.591,1.161,0.829,0.373,0.655,0.615,��쓌,0.9,��
2021/04/12,07:00,0.635,0.943,0.591,1.162,0.830,0.372,0.655,0.614,�쓌,0.6,��
2021/04/12,07:10,0.635,0.942,0.592,1.162,0.829,0.372,0.658,0.612,-,CALM,��
2021/04/12,07:20,0.635,0.944,0.593,1.161,0.831,0.373,0.655,0.615,-,CALM,��
2021/04/12,07:30,0.637,0.943,0.592,1.162,0.830,0.373,0.656,0.615,�쓌,0.9,��
2021/04/12,07:40,0.637,0.943,0.593,1.161,0.830,0.371,0.657,0.614,�k��,0.6,��
2021/04/12,07:50,0.636,0.943,0.593,1.164,0.831,0.370,0.657,0.616,��,1.5,��
2021/04/12,08:00,0.638,0.940,0.593,1.162,0.831,0.372,0.657,0.617,��,2.0,��
2021/04/12,08:10,0.637,0.942,0.593,1.164,0.831,0.372,0.657,0.617,��쓌,2.3,��
2021/04/12,08:20,0.638,0.941,0.592,1.165,0.832,0.371,0.656,0.617,��쓌,2.6,��
2021/04/12,08:30,0.636,0.941,0.593,1.162,0.831,0.371,0.655,0.616,�쓌,3.0,��
2021/04/12,08:40,0.639,0.942,0.593,1.164,0.831,0.371,0.657,0.615,�쓌,2.5,��
2021/04/12,08:50,0.635,0.941,0.592,1.161,0.832,0.372,0.654,0.614,�쓌,3.4,��
2021/04/12,09:00,0.636,0.939,0.592,1.162,0.831,0.370,0.654,0.614,�쓌,4.0,��
2021/04/12,09:10,0.637,0.942,0.593,1.165,0.833,0.371,0.653,0.614,�쓌,5.0,��
2021/04/12,09:20,0.637,0.942,0.594,1.162,0.833,0.371,0.656,0.613,�쓌,6.4,��
2021/04/12,09:30,0.637,0.943,0.593,1.165,0.832,0.372,0.655,0.612,��쓌,6.9,��
2021/04/12,09:40,0.637,0.940,0.592,1.165,0.831,0.372,0.655,0.614,��쓌,10.8,��
2021/04/12,09:50,0.636,0.942,0.593,1.164,0.831,0.372,0.655,0.613,��쓌,10.7,��
2021/04/12,10:00,0.635,0.940,0.592,1.167,0.833,0.372,0.654,0.614,��쓌,10.2,��
2021/04/12,10:10,0.638,0.942,0.592,1.163,0.830,0.371,0.655,0.615,��쓌,10.7,��
2021/04/12,10:20,0.636,0.942,0.591,1.166,0.831,0.373,0.655,0.613,��쓌,11.0,��
2021/04/12,10:30,0.635,0.944,0.593,1.164,0.832,0.372,0.653,0.613,��쓌,9.9,��
2021/04/12,10:40,0.634,0.942,0.593,1.163,0.829,0.372,0.655,0.614,��쓌,10.5,��
2021/04/12,10:50,0.636,0.942,0.594,1.166,0.831,0.373,0.656,0.614,��쓌,10.6,��
2021/04/12,11:00,0.636,0.944,0.593,1.164,0.830,0.372,0.656,0.615,��쓌,10.8,��
2021/04/12,11:10,0.637,0.944,0.591,1.165,0.830,0.372,0.657,0.614,��쓌,11.3,��
2021/04/12,11:20,0.636,0.942,0.590,1.164,0.832,0.372,0.655,0.614,��쓌,11.0,��
2021/04/12,11:30,0.638,0.945,0.591,1.165,0.831,0.373,0.655,0.614,��쓌,9.4,��
2021/04/12,11:40,0.635,0.944,0.592,1.166,0.832,0.374,0.656,0.615,��쓌,11.6,��
2021/04/12,11:50,0.635,0.944,0.591,1.167,0.831,0.374,0.656,0.612,��쓌,13.0,��
2021/04/12,12:00,0.637,0.945,0.592,1.167,0.833,0.374,0.657,0.614,��쓌,10.0,��
2021/04/12,12:10,0.637,0.945,0.594,1.168,0.832,0.375,0.657,0.614,��쓌,14.4,��
2021/04/12,12:20,0.636,0.948,0.593,1.168,0.832,0.376,0.655,0.615,��쓌,12.7,��
2021/04/12,12:30,0.637,0.947,0.592,1.166,0.834,0.373,0.656,0.613,��쓌,11.4,��
2021/04/12,12:40,0.636,0.946,0.591,1.167,0.835,0.375,0.657,0.615,��쓌,11.0,��
2021/04/12,12:50,0.636,0.945,0.591,1.167,0.834,0.375,0.655,0.613,��쓌,13.8,��
2021/04/12,13:00,0.634,0.947,0.593,1.167,0.834,0.374,0.658,0.615,��쓌,13.8,��
2021/04/12,13:10,0.637,0.945,0.593,1.168,0.834,0.376,0.657,0.614,��쓌,10.3,��
2021/04/12,13:20,0.636,0.946,0.592,1.166,0.833,0.375,0.658,0.614,��쓌,14.2,��
2021/04/12,13:30,0.637,0.947,0.593,1.167,0.835,0.376,0.658,0.614,��쓌,13.3,��
2021/04/12,13:40,0.637,0.944,0.593,1.168,0.835,0.376,0.657,0.615,��쓌,12.4,��
2021/04/12,13:50,0.636,0.945,0.592,1.168,0.836,0.376,0.658,0.616,��쓌,13.0,��
2021/04/12,14:00,0.637,0.942,0.592,1.168,0.836,0.375,0.659,0.614,��쓌,13.8,��
2021/04/12,14:10,0.638,0.947,0.592,1.167,0.835,0.376,0.656,0.614,��쓌,13.8,��
2021/04/12,14:20,0.637,0.947,0.593,1.170,0.836,0.376,0.656,0.614,��쓌,11.6,��
2021/04/12,14:30,0.639,0.947,0.593,1.169,0.834,0.376,0.656,0.615,��쓌,13.5,��
2021/04/12,14:40,0.637,0.947,0.592,1.166,0.837,0.376,0.657,0.615,��쓌,13.0,��
2021/04/12,14:50,0.637,0.945,0.591,1.170,0.835,0.376,0.655,0.615,��쓌,12.4,��
2021/04/12,15:00,0.638,0.945,0.593,1.170,0.836,0.377,0.657,0.614,��쓌,13.9,��
2021/04/12,15:10,0.639,0.947,0.593,1.168,0.837,0.376,0.657,0.615,��,14.9,��
2021/04/12,15:20,0.639,0.948,0.593,1.169,0.835,0.377,0.657,0.615,��쓌,13.0,��
2021/04/12,15:30,0.639,0.947,0.593,1.167,0.836,0.376,0.658,0.615,��쓌,13.8,��
2021/04/12,15:40,0.638,0.947,0.593,1.165,0.837,0.377,0.658,0.615,��,10.8,��
2021/04/12,15:50,0.638,0.947,0.594,1.164,0.836,0.375,0.657,0.616,��쓌,9.6,��
2021/04/12,16:00,0.638,0.947,0.593,1.164,0.835,0.376,0.658,0.615,��쓌,11.3,��
2021/04/12,16:10,0.637,0.947,0.593,1.166,0.835,0.377,0.657,0.616,��쓌,10.9,��
2021/04/12,16:20,0.637,0.948,0.594,1.167,0.836,0.377,0.657,0.615,��,11.3,��
2021/04/12,16:30,0.637,0.945,0.593,1.164,0.835,0.376,0.658,0.616,��,10.6,��
2021/04/12,16:40,0.637,0.948,0.594,1.163,0.836,0.377,0.656,0.616,��쓌,9.8,��
2021/04/12,16:50,0.637,0.948,0.592,1.168,0.837,0.377,0.658,0.615,��쓌,10.9,��
2021/04/12,17:00,0.638,0.947,0.593,1.166,0.833,0.376,0.656,0.615,��,9.5,��
2021/04/12,17:10,0.636,0.950,0.593,1.166,0.836,0.378,0.657,0.615,��쓌,9.4,��
2021/04/12,17:20,0.637,0.949,0.593,1.167,0.835,0.377,0.656,0.615,��쓌,9.4,��
2021/04/12,17:30,0.638,0.948,0.592,1.167,0.835,0.378,0.657,0.615,��,9.3,��
2021/04/12,17:40,0.637,0.948,0.593,1.167,0.835,0.377,0.655,0.616,��,8.7,��
2021/04/12,17:50,0.639,0.949,0.592,1.168,0.835,0.376,0.655,0.617,��,9.4,��
2021/04/12,18:00,0.640,0.951,0.593,1.169,0.836,0.377,0.656,0.617,��,10.2,��
2021/04/12,18:10,0.641,0.950,0.593,1.171,0.833,0.377,0.656,0.618,��,8.8,��
2021/04/12,18:20,0.642,0.951,0.595,1.172,0.835,0.376,0.656,0.619,��,9.4,��
2021/04/12,18:30,0.641,0.950,0.595,1.168,0.836,0.377,0.656,0.618,��,9.1,��
2021/04/12,18:40,0.640,0.948,0.595,1.168,0.837,0.375,0.658,0.618,��,8.7,��
2021/04/12,18:50,0.641,0.952,0.596,1.171,0.837,0.376,0.659,0.617,��,9.1,��
2021/04/12,19:00,0.639,0.950,0.595,1.170,0.840,0.376,0.658,0.619,��,9.4,��
2021/04/12,19:10,0.641,0.951,0.594,1.169,0.840,0.375,0.656,0.617,��,8.7,��
2021/04/12,19:20,0.640,0.948,0.595,1.169,0.839,0.375,0.659,0.617,��,8.2,��
2021/04/12,19:30,0.641,0.950,0.595,1.170,0.837,0.377,0.659,0.618,��,8.9,��
2021/04/12,19:40,0.643,0.950,0.595,1.169,0.837,0.376,0.659,0.618,��,8.4,��
2021/04/12,19:50,0.641,0.951,0.595,1.167,0.841,0.375,0.659,0.616,��,8.6,��
2021/04/12,20:00,0.642,0.951,0.595,1.171,0.838,0.375,0.659,0.617,��,9.4,��
2021/04/12,20:10,0.641,0.952,0.593,1.169,0.839,0.376,0.659,0.617,��,8.4,��
2021/04/12,20:20,0.641,0.951,0.596,1.167,0.839,0.374,0.659,0.619,��,9.8,��
2021/04/12,20:30,0.641,0.950,0.597,1.171,0.838,0.376,0.659,0.618,��,10.2,��
2021/04/12,20:40,0.639,0.950,0.595,1.170,0.836,0.376,0.660,0.616,��,9.0,��
2021/04/12,20:50,0.639,0.951,0.594,1.170,0.838,0.375,0.660,0.618,��,11.4,��
2021/04/12,21:00,0.641,0.952,0.596,1.170,0.840,0.376,0.659,0.618,��,10.5,��
2021/04/12,21:10,0.641,0.953,0.596,1.171,0.837,0.374,0.659,0.617,��,10.0,��
2021/04/12,21:20,0.640,0.950,0.595,1.171,0.839,0.376,0.660,0.617,��,11.0,��
2021/04/12,21:30,0.641,0.952,0.596,1.169,0.838,0.375,0.659,0.618,��,8.7,��
2021/04/12,21:40,0.640,0.949,0.594,1.170,0.836,0.375,0.659,0.617,��,9.0,��
2021/04/12,21:50,0.640,0.951,0.595,1.169,0.836,0.375,0.658,0.618,��,10.0,��
2021/04/12,22:00,0.641,0.949,0.594,1.171,0.838,0.376,0.659,0.617,��,9.7,��
2021/04/12,22:10,0.640,0.950,0.596,1.173,0.838,0.375,0.658,0.619,��,9.6,��
2021/04/12,22:20,0.641,0.953,0.596,1.168,0.839,0.375,0.658,0.618,��,10.8,��
2021/04/12,22:30,0.641,0.952,0.595,1.170,0.839,0.375,0.660,0.616,��,11.4,��
2021/04/12,22:40,0.639,0.949,0.595,1.167,0.839,0.375,0.659,0.616,��,9.8,��
2021/04/12,22:50,0.640,0.952,0.594,1.169,0.836,0.375,0.659,0.617,��,11.0,��
2021/04/12,23:00,0.641,0.952,0.595,1.169,0.838,0.376,0.659,0.616,��,10.5,��
2021/04/12,23:10,0.642,0.953,0.594,1.171,0.840,0.375,0.659,0.617,��,9.8,��
2021/04/12,23:20,0.641,0.951,0.595,1.170,0.838,0.376,0.658,0.617,��,9.2,��
2021/04/12,23:30,0.641,0.952,0.596,1.170,0.838,0.375,0.660,0.616,��쐼,9.1,��
2021/04/12,23:40,0.641,0.951,0.594,1.171,0.838,0.376,0.660,0.617,��,9.8,��
2021/04/12,23:50,0.640,0.951,0.593,1.170,0.836,0.375,0.660,0.616,��,9.4,��
